{"data":{"norad_id":53805,"intl_designator":"2022-111AJ","name":"STARLINK-4763","alt_names":[],"object_type":"PAYLOAD","status":"ACTIVE","operator":null,"country":"US","launch_date":"2022-09-11","launch_site_code":"AFETR","launch_vehicle":null,"mission":null,"orbit_class":"UNKNOWN","rcs_meters":null,"size_class":null,"mass_kg":null,"dimensions":null,"purposes":["comms"],"wikipedia_slug":null,"has_3d_model":false,"image_url":null,"decayed_at":null,"tle_current":{"epoch":"2026-05-24T20:35:04.960320Z","epoch_age_seconds":84573,"freshness":"FRESH","line1":"1 53805U 22111AJ  26144.85769630  .00001201  00000+0  93522-4 0  9997","line2":"2 53805  53.2145 267.3152 0001136  89.1799 270.9323 15.08843596205522","mean_motion":15.08843596,"eccentricity":0.0001136,"inclination_deg":53.2145,"raan_deg":267.3152,"arg_perigee_deg":89.1799,"mean_anomaly_deg":270.9323,"bstar":9.3522e-5,"rev_number":20552,"period_min":95.437327223146,"perigee_km":538.94652748899,"apogee_km":540.51826741609,"semimajor_km":6917.8693974525,"source":"CELESTRAK","updated_at":"2026-05-25T13:38:17.567433Z"}}}